This demonstration page uses our WeatherBlox Daily Observations layout. Learn more.

Left ArrowRight Arrow

Hourly Observations for August 15, 2020

Temp ( °F °C ) Dew Point ( °F °C ) Humidity (%) Winds ( mph kmh ) Pressure ( in mb ) Visibility ( mi km ) Precip ( " mm )
12:53 am 00:53 Cloudy 71 21.7 66 18.9 84 84 ENE 9 15 29.94 1014 10 16.0934 0.001 0.001
1:53 am 01:53 Mostly Cloudy 71 21.7 66 18.9 84 84 N N/A 29.92 1013 10 16.0934 N/A
2:53 am 02:53 Clear 68 20 66 18.9 93 93 N N/A 29.91 1013 10 16.0934 N/A
3:53 am 03:53 Clear 67 19.4 66 18.9 97 97 N N/A 29.91 1013 10 16.0934 N/A
4:53 am 04:53 Mostly Cloudy 67 19.4 65 18.3 93 93 N 7 11 29.92 1013 10 16.0934 N/A
5:53 am 05:53 Mostly Clear 69 20.6 66 18.9 90 90 NNE 5 7 29.93 1014 10 16.0934 N/A
6:53 am 06:53 Sunny 66 18.9 65 18.3 96 96 N N/A 29.92 1013 10 16.0934 N/A
7:53 am 07:53 Mostly Sunny 67 19.4 65 18.3 93 93 NW 6 9 29.94 1014 10 16.0934 N/A
8:53 am 08:53 Cloudy 71 21.7 65 18.3 81 81 NW 5 7 29.95 1014 10 16.0934 N/A
9:53 am 09:53 Cloudy 73 22.8 66 18.9 79 79 N N/A 29.95 1014 10 16.0934 N/A
10:53 am 10:53 Mostly Cloudy 77 25 68 20 74 74 VRB 6 9 29.95 1014 10 16.0934 N/A
11:53 am 11:53 Sunny 81 27.2 69 20.6 67 67 N N/A 29.94 1014 10 16.0934 N/A
12:53 pm 12:53 Sunny 83 28.3 69 20.6 63 63 ENE 7 11 29.93 1014 10 16.0934 N/A
1:53 pm 13:53 Sunny 85 29.4 69 20.6 59 59 undefined N/A 29.93 1014 10 16.0934 N/A
2:53 pm 14:53 Sunny 87 30.6 68 20 53 53 NE 6 9 29.91 1013 10 16.0934 N/A
3:53 pm 15:53 Sunny 88 31.1 69 20.6 54 54 N 9 15 29.9 1012 10 16.0934 N/A
4:53 pm 16:53 Mostly Sunny 87 30.6 67 19.4 51 51 NNW 6 9 29.88 1012 10 16.0934 N/A
5:53 pm 17:53 Sunny 87 30.6 68 20 53 53 NNW 6 9 29.87 1012 10 16.0934 N/A
6:53 pm 18:53 Mostly Sunny 87 30.6 67 19.4 51 51 N 5 7 29.87 1012 10 16.0934 N/A
7:53 pm 19:53 Sunny 85 29.4 68 20 57 57 N 3 6 29.88 1012 10 16.0934 N/A
8:53 pm 20:53 Cloudy 81 27.2 69 20.6 67 67 N N/A 29.9 1013 10 16.0934 N/A
9:53 pm 21:53 Clear 76 24.4 69 20.6 79 79 N N/A 29.93 1013 10 16.0934 N/A
10:53 pm 22:53 Clear 73 22.8 70 21.1 90 90 N N/A 29.93 1014 10 16.0934 N/A
11:53 pm 23:53 Clear 72 22.2 69 20.6 91 91 E 3 6 29.93 1014 10 16.0934 N/A

Powered by AerisWeather